{"data":{"norad_id":66660,"epoch":"2026-09-18T13:11:46.947552Z","epoch_age_seconds":289402,"freshness":"STALE","line1":"1 66660U 25274L   26261.54984893  .00001759  00000+0  16893-3 0  9992","line2":"2 66660  97.7491 189.7520 0015416  69.9156 290.3722 14.94248246 44173","mean_motion":14.94248246,"eccentricity":0.0015416,"inclination_deg":97.7491,"raan_deg":189.752,"arg_perigee_deg":69.9156,"mean_anomaly_deg":290.3722,"bstar":0.00016893,"rev_number":4417,"period_min":96.369529216767,"perigee_km":573.97318275177,"apogee_km":595.44102369083,"semimajor_km":6962.8441032213,"source":"CELESTRAK","updated_at":"2026-09-21T09:00:16.117748Z"}}